Theta_e
296 295 296 297 297 296 296 295 295 294 295 295 295 295 295 296 296 296 296 296 296 296 296 295 293 293 293 292 293 294 294 295 296 296 297 297 297 297 297 297 296 300 305 306
297 296 297 297 295 294 294 294 294 295 295 295 295 295 295 296 296 296 296 295 296 295 294 293 293 292 292 292 292 292 292 293 294 295 296 296 297 297 298 298 299 304 301 305
297 297 296 295 295 295 295 295 294 294 294 294 294 295 295 296 296 296 295 294 294 293 293 293 292 291 291 290 290 290 290 291 292 293 295 296 296 296 297 297 298 298 304 305
295 295 295 295 296 295 295 294 294 293 294 294 294 296 294 295 295 295 294 294 294 293 292 292 291 290 289 289 289 289 289 290 290 292 293 295 296 297 297 298 298 297 310 310
296 294 295 296 295 294 293 293 293 293 294 295 294 295 295 295 295 295 295 294 293 292 291 290 289 288 288 288 288 288 288 289 290 291 292 294 296 297 296 298 298 299 305 315
294 294 296 294 293 293 292 293 293 294 294 294 294 294 293 294 295 294 294 293 292 291 290 289 288 287 287 287 287 287 288 288 289 290 292 294 294 295 297 297 298 299 304 313
294 294 294 293 293 293 291 293 293 293 295 295 293 293 293 294 295 293 292 292 291 289 289 288 287 286 286 286 286 286 286 286 287 288 290 291 293 295 296 297 298 298 303 313
293 293 293 293 293 292 293 292 293 292 292 293 292 292 293 294 293 292 291 290 290 289 287 286 285 285 285 285 284 284 284 285 285 287 288 290 292 294 296 296 297 300 300 312
293 291 292 292 293 292 292 292 293 292 292 293 292 293 294 293 293 292 291 290 289 287 286 285 284 284 284 283 283 282 283 283 284 285 287 289 291 295 296 296 296 297 302 311
292 292 291 292 291 292 292 292 292 293 292 291 292 293 294 295 293 291 290 290 287 286 284 283 282 282 282 281 280 280 281 282 283 284 286 289 291 295 298 296 297 297 304 311
292 292 291 291 292 292 292 292 292 292 292 293 292 293 295 292 290 290 289 287 286 284 283 281 280 280 280 280 279 279 280 281 282 284 287 289 291 294 298 298 297 296 308 311
291 292 291 291 291 288 289 291 291 292 291 291 291 292 292 291 292 292 288 286 284 283 281 280 279 279 279 279 279 278 279 280 283 285 288 291 291 293 298 301 299 297 310 311
288 289 290 290 291 289 291 291 290 291 292 290 291 291 291 292 292 290 287 285 283 282 280 279 279 279 279 279 278 278 279 280 283 287 290 292 293 294 296 299 298 301 309 312
288 289 288 289 291 291 290 290 291 291 290 291 291 291 291 291 291 289 286 284 283 281 280 279 278 278 278 278 278 278 278 280 284 288 293 296 296 295 295 301 297 310 308 313
287 286 288 288 290 290 290 290 290 290 290 290 289 289 289 290 290 287 286 283 281 280 279 278 277 277 279 279 279 279 278 280 284 287 293 296 300 301 300 298 310 309 310 312
287 286 288 288 289 289 288 289 289 289 288 287 288 288 289 289 288 288 286 282 281 280 278 277 276 277 278 280 278 278 279 280 282 285 291 294 297 297 301 309 311 308 311 314
287 286 288 287 287 288 289 290 290 289 288 288 291 292 291 290 289 287 284 281 280 279 277 276 276 276 277 280 279 280 280 281 282 285 289 290 295 299 306 309 308 310 310 312
286 287 288 288 289 289 291 287 286 287 288 290 291 291 289 288 286 284 282 280 279 278 277 276 276 277 278 280 281 283 283 281 282 283 285 287 297 304 303 303 303 303 306 307
288 287 288 289 290 290 291 290 291 289 291 292 290 290 289 286 285 286 280 279 279 278 278 276 276 276 278 279 280 283 283 284 285 287 287 291 294 296 299 299 300 298 304 303
289 290 289 289 289 289 291 289 286 286 292 291 287 288 288 287 291 288 280 280 280 279 278 277 277 277 278 278 279 280 283 283 284 285 287 287 290 292 295 296 297 298 300 300
289 290 289 291 291 290 289 287 288 292 292 288 287 287 287 288 288 283 280 280 279 280 279 278 277 278 278 278 278 279 280 280 283 285 287 287 288 289 292 294 295 295 296 297
288 290 290 289 289 290 288 290 291 290 288 288 287 287 285 285 285 281 280 281 280 280 280 279 278 278 278 279 279 279 279 279 280 282 284 286 287 288 289 292 293 295 296 296
289 289 290 289 290 291 289 290 289 288 287 288 288 288 286 285 284 282 280 281 280 279 280 280 279 279 279 279 279 280 279 279 280 280 281 282 284 286 288 290 290 291 292 292
288 289 289 289 291 291 290 289 288 288 287 287 287 287 286 285 285 282 281 281 280 280 279 280 281 280 280 280 280 280 281 282 282 281 281 281 282 283 284 286 287 288 288 289
288 288 288 289 290 290 290 289 287 286 287 287 287 286 286 285 285 282 281 281 281 280 280 279 280 280 280 280 280 281 282 282 283 283 282 281 281 282 282 282 283 284 284 286
287 288 289 290 289 287 288 287 285 285 285 285 285 286 286 286 285 284 282 281 281 281 280 280 280 280 280 280 280 281 281 282 283 283 283 283 283 282 281 281 281 281 282 283
Wind_Speed
15 11 15 21 22 25 24 26 30 27 25 23 23 27 29 27 32 29 37 35 34 29 24 14 17 19 22 23 23 24 24 26 26 26 27 29 32 34 35 36 43 45 46 41
14 19 22 17 21 22 23 25 26 26 24 21 24 28 29 27 28 30 24 21 23 16 16 18 21 23 25 27 27 28 28 29 28 29 30 30 32 32 30 31 34 32 45 45
19 25 24 18 21 24 21 22 24 26 21 20 21 27 21 23 20 14 2 8 11 14 19 23 26 28 29 30 29 29 29 30 31 29 30 32 32 34 33 36 37 42 36 42
13 17 14 20 24 22 20 21 21 18 18 16 19 19 25 18 11 4 6 8 11 17 23 28 31 31 30 31 29 30 30 31 32 32 31 32 34 34 36 36 35 39 31 37
25 27 24 19 20 19 20 18 16 19 19 17 25 10 21 15 16 3 4 8 15 22 30 31 30 32 30 29 29 30 30 31 31 33 32 33 34 38 38 34 34 32 36 36
23 29 20 17 19 15 14 15 16 21 8 8 17 9 11 9 5 5 4 11 20 29 30 31 30 30 31 29 29 29 31 32 30 32 34 36 38 39 36 37 38 35 36 38
19 18 13 7 9 4 5 9 7 7 5 11 7 9 16 20 10 3 5 15 24 27 30 31 30 31 31 32 31 31 31 34 33 33 37 39 41 42 42 40 37 37 38 40
16 16 16 3 10 10 17 8 7 8 11 16 20 9 5 9 5 4 9 19 23 27 29 30 31 31 31 30 30 30 32 37 35 36 37 41 42 43 43 45 41 36 42 40
11 12 23 16 16 8 2 6 7 7 15 11 10 16 13 6 2 5 14 25 27 28 28 32 33 32 32 32 32 32 33 36 37 36 37 39 41 40 43 43 43 44 42 39
5 16 13 9 5 8 11 6 6 4 5 13 13 19 12 12 10 12 16 20 26 25 27 28 31 31 31 33 33 30 31 34 36 37 38 39 40 40 39 43 43 42 43 42
17 6 18 8 6 10 5 5 6 4 8 9 12 11 7 7 4 14 15 22 24 24 25 28 30 32 32 33 32 30 28 30 32 34 37 38 39 42 37 42 46 48 43 44
18 7 8 19 5 1 4 5 6 5 12 12 13 18 2 6 10 9 13 23 24 23 25 28 31 33 35 36 34 32 28 28 27 30 33 38 39 44 42 39 47 54 45 41
13 8 14 14 4 2 4 3 5 10 10 16 12 11 3 10 17 14 15 21 22 24 27 31 36 36 38 39 38 34 30 26 22 21 27 35 40 43 49 42 50 46 43 37
25 11 16 17 13 12 14 18 13 11 8 16 16 23 20 17 16 13 16 17 20 23 26 29 34 38 39 40 39 36 33 26 18 9 17 30 36 43 46 44 50 52 41 41
7 15 14 19 16 15 17 18 18 16 17 14 23 19 23 19 12 10 14 16 20 24 28 33 36 40 41 42 41 39 35 27 18 14 5 19 31 37 43 44 52 47 38 41
7 11 9 15 11 11 13 16 15 14 14 14 17 20 10 5 10 10 12 16 19 23 27 32 35 37 41 41 42 42 38 33 29 25 24 19 22 29 36 46 40 34 43 48
6 5 4 10 4 8 9 6 2 3 4 5 7 11 13 11 9 7 12 14 18 23 28 32 34 35 36 39 42 44 41 37 38 39 35 30 37 44 42 27 38 44 42 43
5 6 5 8 9 4 2 1 1 4 7 9 12 12 9 9 10 7 6 10 18 23 28 30 31 33 33 36 40 43 43 44 44 43 44 47 51 48 39 41 42 38 41 41
9 7 3 3 5 11 3 3 2 1 4 6 7 10 8 10 8 2 6 9 15 19 23 24 26 28 31 33 37 41 44 50 56 55 55 52 49 51 49 48 43 45 45 44
5 9 5 2 5 4 6 3 2 1 3 1 3 8 8 11 5 3 6 8 13 17 21 24 24 28 31 33 37 41 45 48 53 51 45 47 48 43 44 39 44 46 44 39
6 1 6 8 5 4 6 8 2 4 7 7 7 13 10 5 3 5 4 7 10 16 20 21 24 27 29 32 36 39 39 44 42 43 42 43 46 44 43 40 37 34 33 33
4 6 1 3 3 3 1 7 6 5 13 11 12 12 11 12 9 5 3 4 7 12 17 19 22 25 27 30 33 36 38 36 36 38 37 40 40 41 39 39 36 34 30 29
3 4 5 4 6 12 5 12 20 17 16 14 13 14 12 10 9 7 5 2 4 8 12 17 20 22 25 27 29 31 33 33 32 32 34 34 37 38 37 38 35 34 31 29
10 3 5 9 3 6 14 9 8 13 14 15 16 15 12 11 9 9 8 5 2 5 8 12 17 21 24 26 27 29 29 30 30 31 33 33 34 36 35 35 34 33 30 27
12 14 10 11 15 12 7 16 10 17 16 16 17 16 15 11 10 10 11 9 5 3 6 8 12 17 20 22 23 24 25 26 27 26 27 29 30 30 31 32 31 30 28 25
13 14 8 6 9 6 14 17 16 11 12 16 17 17 14 14 13 12 14 12 9 5 4 6 9 12 15 18 20 22 23 24 24 25 26 26 26 25 25 25 24 24 24 23
Wind_Direction
276 260 263 277 290 298 292 287 288 283 289 290 284 285 279 287 286 284 285 282 278 276 283 290 285 290 291 290 290 287 285 279 275 270 266 264 265 262 262 265 264 249 246 249
282 258 273 298 299 286 287 280 281 282 289 287 291 285 288 288 283 283 274 283 283 291 289 291 296 296 294 291 289 285 281 278 274 269 265 261 261 259 259 260 254 253 247 244
290 283 297 293 295 293 284 284 285 294 304 290 283 283 291 304 301 308 30 285 292 293 301 302 301 299 296 291 289 284 279 274 271 265 265 260 259 259 258 254 253 248 239 245
288 297 281 291 297 291 293 289 288 296 300 295 304 294 291 291 282 257 204 243 293 306 306 305 304 300 296 293 289 285 280 275 270 267 261 257 255 255 254 253 255 262 243 242
283 290 294 300 284 308 289 293 300 290 288 295 285 270 281 281 288 135 226 301 307 311 310 307 303 300 296 293 291 286 282 276 270 268 258 255 254 253 250 249 251 255 233 238
277 285 282 272 295 300 300 299 295 280 273 252 265 250 289 317 334 302 291 311 317 318 312 308 306 302 299 296 293 288 283 278 272 265 258 253 253 248 248 244 242 243 239 237
316 302 298 286 288 278 248 294 295 283 233 276 328 282 274 308 4 18 320 321 321 314 311 311 309 305 302 300 296 292 286 278 271 264 257 253 252 248 241 239 240 241 233 233
304 314 327 291 264 296 298 294 278 299 300 309 310 275 275 300 152 193 310 332 320 318 316 314 312 308 303 300 296 292 287 280 274 267 259 254 246 247 240 233 235 236 232 234
299 291 310 291 295 274 338 254 308 290 265 270 258 263 280 58 101 313 331 328 326 323 320 316 314 312 309 306 303 295 289 283 276 270 261 255 244 241 235 231 231 236 230 231
294 290 302 302 312 239 232 341 283 244 287 306 302 307 301 350 346 327 319 327 325 321 319 317 315 313 310 308 307 301 292 284 277 267 258 251 244 234 234 229 227 231 230 222
287 266 293 288 238 276 250 254 218 271 274 297 311 304 354 349 353 310 316 329 328 327 325 322 322 323 324 322 319 311 300 290 279 269 260 250 243 227 230 228 227 228 227 219
288 289 307 298 309 295 246 276 283 261 304 303 297 281 275 140 326 326 337 332 332 332 332 331 330 331 332 335 332 327 318 303 284 268 254 244 238 230 218 225 225 221 215 216
320 299 303 288 221 114 222 191 252 274 281 276 287 282 227 287 335 355 339 334 339 339 335 337 341 340 341 343 343 341 334 324 302 276 253 241 234 227 216 216 221 220 206 210
300 275 276 272 305 317 300 302 281 260 268 295 276 288 300 312 330 342 334 336 336 327 331 336 341 344 347 349 350 350 346 350 328 300 247 238 228 218 216 221 213 200 202 205
298 281 291 297 280 288 284 283 278 264 263 265 287 297 294 306 324 319 319 335 333 332 338 343 345 347 353 357 1 1 2 9 14 30 110 207 213 213 211 203 188 189 201 213
281 277 287 289 295 295 282 275 275 270 270 268 273 279 280 308 298 311 340 341 333 334 338 344 350 354 357 0 5 4 14 24 31 50 77 115 157 167 179 182 174 188 201 172
261 261 287 286 340 309 273 258 223 269 221 249 297 316 328 316 320 347 334 338 334 336 343 351 355 358 1 4 12 14 24 33 42 59 75 86 119 125 120 136 156 167 163 160
242 244 247 286 296 259 60 132 18 221 278 251 273 296 317 305 311 308 335 340 339 348 352 358 1 3 7 11 19 25 32 39 47 50 62 73 94 106 113 116 124 133 139 140
217 227 260 276 295 287 296 68 359 319 277 265 274 297 318 313 300 158 358 0 350 353 357 2 8 10 16 20 22 29 32 39 48 50 57 68 78 92 102 104 106 103 113 117
297 215 210 211 289 307 46 23 187 182 228 10 255 297 330 324 318 39 354 7 3 2 7 9 17 22 25 30 30 33 32 41 45 50 56 67 72 81 87 90 90 96 101 103
326 129 228 276 275 284 26 331 266 269 6 348 323 311 313 307 324 305 343 2 20 9 13 18 26 28 28 30 38 40 37 40 45 51 55 62 71 72 76 80 83 87 92 94
300 317 6 286 269 275 64 303 323 333 320 321 324 316 304 296 289 266 283 351 19 27 18 26 30 33 33 35 37 41 43 43 45 52 56 61 66 73 78 79 78 77 77 77
281 326 306 279 303 316 290 271 294 292 291 299 312 319 315 299 284 258 263 288 8 30 27 24 31 35 37 38 41 41 42 47 49 54 59 61 65 72 76 79 79 78 81 83
288 185 261 310 255 285 314 326 328 344 318 307 316 308 305 289 287 255 246 245 290 14 30 34 29 34 37 40 40 41 41 41 44 48 53 57 60 65 68 74 79 81 81 82
276 291 279 282 281 300 246 336 344 327 322 317 317 315 306 292 274 253 251 245 252 324 6 30 39 35 33 36 41 43 43 42 43 46 52 55 56 59 66 68 68 72 75 75
258 253 250 277 11 304 296 312 323 327 327 321 323 315 313 301 276 261 249 246 248 270 333 15 28 34 36 33 34 38 39 39 40 42 44 47 53 57 58 62 65 67 70 70